Year,Month,Day,Hour,Minute,Value (Times are PST for temperature in C)
2013,08,14,00,00,16.40
2013,08,14,00,01,16.40
2013,08,14,00,02,16.40
2013,08,14,00,03,16.40
2013,08,14,00,04,16.40
2013,08,14,00,05,16.40
2013,08,14,00,06,16.40
2013,08,14,00,07,16.40
2013,08,14,00,08,16.40
2013,08,14,00,09,16.30
2013,08,14,00,10,16.30
2013,08,14,00,11,16.30
2013,08,14,00,12,16.30
2013,08,14,00,13,16.30
2013,08,14,00,14,16.30
2013,08,14,00,15,16.30
2013,08,14,00,16,16.20
2013,08,14,00,17,16.20
2013,08,14,00,18,16.20
2013,08,14,00,19,16.10
2013,08,14,00,20,16.10
2013,08,14,00,21,16.10
2013,08,14,00,22,16.10
2013,08,14,00,23,16.10
2013,08,14,00,24,16.10
2013,08,14,00,25,16.10
2013,08,14,00,26,16.10
2013,08,14,00,27,16.10
2013,08,14,00,28,16.10
2013,08,14,00,29,16.10
2013,08,14,00,30,16.10
2013,08,14,00,31,16.10
2013,08,14,00,32,16.10
2013,08,14,00,33,15.90
2013,08,14,00,34,15.90
2013,08,14,00,35,15.90
2013,08,14,00,36,15.80
2013,08,14,00,37,15.80
2013,08,14,00,38,15.80
2013,08,14,00,39,15.80
2013,08,14,00,40,15.80
2013,08,14,00,41,15.90
2013,08,14,00,42,15.90
2013,08,14,00,43,15.90
2013,08,14,00,44,15.90
2013,08,14,00,45,15.80
2013,08,14,00,46,15.80
2013,08,14,00,47,15.80
2013,08,14,00,48,15.80
2013,08,14,00,49,15.80
2013,08,14,00,50,15.80
2013,08,14,00,51,15.80
2013,08,14,00,52,15.80
2013,08,14,00,53,15.80
2013,08,14,00,54,15.70
2013,08,14,00,55,15.70
2013,08,14,00,56,15.60
2013,08,14,00,57,15.60
2013,08,14,00,58,15.60
2013,08,14,00,59,15.50
2013,08,14,01,00,15.50
2013,08,14,01,01,15.50
2013,08,14,01,02,15.40
2013,08,14,01,03,15.40
2013,08,14,01,04,15.30
2013,08,14,01,05,15.30
2013,08,14,01,06,15.30
2013,08,14,01,07,15.20
2013,08,14,01,08,15.20
2013,08,14,01,09,15.10
2013,08,14,01,10,15.10
2013,08,14,01,11,15.10
2013,08,14,01,12,15.00
2013,08,14,01,13,15.00
2013,08,14,01,14,15.00
2013,08,14,01,15,15.00
2013,08,14,01,16,14.90
2013,08,14,01,17,14.90
2013,08,14,01,18,14.90
2013,08,14,01,19,14.90
2013,08,14,01,20,14.90
2013,08,14,01,21,14.90
2013,08,14,01,22,14.90
2013,08,14,01,23,14.90
2013,08,14,01,24,14.90
2013,08,14,01,25,14.90
2013,08,14,01,26,14.90
2013,08,14,01,27,14.90
2013,08,14,01,28,14.90
2013,08,14,01,29,14.90
2013,08,14,01,30,14.90
2013,08,14,01,31,15.00
2013,08,14,01,32,15.00
2013,08,14,01,33,15.10
2013,08,14,01,34,15.20
2013,08,14,01,35,15.20
2013,08,14,01,36,15.20
2013,08,14,01,37,15.20
2013,08,14,01,38,15.20
2013,08,14,01,39,15.20
2013,08,14,01,40,15.20
2013,08,14,01,41,15.20
2013,08,14,01,42,15.20
2013,08,14,01,43,15.20
2013,08,14,01,44,15.10
2013,08,14,01,45,15.10
2013,08,14,01,46,15.10
2013,08,14,01,47,15.10
2013,08,14,01,48,15.00
2013,08,14,01,49,15.00
2013,08,14,01,50,15.00
2013,08,14,01,51,14.90
2013,08,14,01,52,14.90
2013,08,14,01,53,14.90
2013,08,14,01,54,14.90
2013,08,14,01,55,14.80
2013,08,14,01,56,14.80
2013,08,14,01,57,14.80
2013,08,14,01,58,14.80
2013,08,14,01,59,14.80
2013,08,14,02,00,14.80
2013,08,14,02,01,14.80
2013,08,14,02,02,14.80
2013,08,14,02,03,14.70
2013,08,14,02,04,14.70
2013,08,14,02,05,14.70
2013,08,14,02,06,14.80
2013,08,14,02,07,14.80
2013,08,14,02,08,14.90
2013,08,14,02,09,14.90
2013,08,14,02,10,15.00
2013,08,14,02,11,15.10
2013,08,14,02,12,15.10
2013,08,14,02,13,15.10
2013,08,14,02,14,15.20
2013,08,14,02,15,15.20
2013,08,14,02,16,15.20
2013,08,14,02,17,15.20
2013,08,14,02,18,15.30
2013,08,14,02,19,15.30
2013,08,14,02,20,15.30
2013,08,14,02,21,15.20
2013,08,14,02,22,15.20
2013,08,14,02,23,15.20
2013,08,14,02,24,15.20
2013,08,14,02,25,15.10
2013,08,14,02,26,15.10
2013,08,14,02,27,15.10
2013,08,14,02,28,15.00
2013,08,14,02,29,15.00
2013,08,14,02,30,15.00
2013,08,14,02,31,14.90
2013,08,14,02,32,14.90
2013,08,14,02,33,14.90
2013,08,14,02,34,14.90
2013,08,14,02,35,14.80
2013,08,14,02,36,14.80
2013,08,14,02,37,14.80
2013,08,14,02,38,14.80
2013,08,14,02,39,14.80
2013,08,14,02,40,14.80
2013,08,14,02,41,14.80
2013,08,14,02,42,14.80
2013,08,14,02,43,14.70
2013,08,14,02,44,14.70
2013,08,14,02,45,14.70
2013,08,14,02,46,14.70
2013,08,14,02,47,14.70
2013,08,14,02,48,14.60
2013,08,14,02,49,14.60
2013,08,14,02,50,14.60
2013,08,14,02,51,14.70
2013,08,14,02,52,14.70
2013,08,14,02,53,14.70
2013,08,14,02,54,14.80
2013,08,14,02,55,14.80
2013,08,14,02,56,14.80
2013,08,14,02,57,14.80
2013,08,14,02,58,14.80
2013,08,14,02,59,14.80
2013,08,14,03,00,14.80
2013,08,14,03,01,14.80
2013,08,14,03,02,14.80
2013,08,14,03,03,14.80
2013,08,14,03,04,14.80
2013,08,14,03,05,14.80
2013,08,14,03,06,14.80
2013,08,14,03,07,14.80
2013,08,14,07,05,14.40
2013,08,14,07,06,14.40
2013,08,14,07,07,14.40
2013,08,14,07,08,14.40
2013,08,14,07,09,14.40
2013,08,14,07,10,14.40
2013,08,14,07,11,14.40
2013,08,14,07,12,14.40
2013,08,14,07,13,14.40
2013,08,14,07,14,14.40
2013,08,14,07,15,14.40
2013,08,14,07,16,14.40
2013,08,14,07,17,14.40
2013,08,14,07,18,14.40
2013,08,14,07,19,14.40
2013,08,14,07,20,14.40
2013,08,14,07,21,14.40
2013,08,14,07,22,14.40
2013,08,14,07,23,14.40
2013,08,14,07,24,14.40
2013,08,14,07,25,14.50
2013,08,14,07,26,14.50
2013,08,14,07,27,14.50
2013,08,14,07,28,14.50
2013,08,14,07,29,14.60
2013,08,14,07,30,14.60
2013,08,14,07,31,14.60
2013,08,14,07,32,14.70
2013,08,14,07,33,14.70
2013,08,14,07,34,14.70
2013,08,14,07,35,14.70
2013,08,14,07,36,14.70
2013,08,14,07,37,14.70
2013,08,14,07,38,14.70
2013,08,14,07,39,14.80
2013,08,14,07,40,14.80
2013,08,14,07,41,14.80
2013,08,14,07,42,14.80
2013,08,14,07,43,14.80
2013,08,14,07,44,14.80
2013,08,14,07,45,14.80
2013,08,14,07,46,14.80
2013,08,14,07,47,14.80
2013,08,14,07,48,14.80
2013,08,14,07,49,14.80
2013,08,14,07,50,14.80
2013,08,14,07,51,14.80
2013,08,14,07,52,14.80
2013,08,14,07,53,14.80
2013,08,14,07,54,14.90
2013,08,14,07,55,14.90
2013,08,14,07,56,14.90
2013,08,14,07,57,14.90
2013,08,14,07,58,14.90
2013,08,14,07,59,14.90
2013,08,14,08,00,14.90
2013,08,14,08,01,15.00
2013,08,14,08,02,15.00
2013,08,14,08,03,15.00
2013,08,14,08,04,15.00
2013,08,14,08,05,15.10
2013,08,14,08,06,15.10
2013,08,14,08,07,15.10
2013,08,14,08,08,15.10
2013,08,14,08,09,15.10
2013,08,14,08,10,15.20
2013,08,14,08,11,15.20
2013,08,14,08,12,15.20
2013,08,14,08,13,15.20
2013,08,14,08,14,15.20
2013,08,14,08,15,15.20
2013,08,14,08,16,15.20
2013,08,14,08,17,15.20
2013,08,14,08,18,15.20
2013,08,14,08,19,15.20
2013,08,14,08,20,15.30
2013,08,14,08,21,15.30
2013,08,14,08,22,15.30
2013,08,14,08,23,15.30
2013,08,14,08,24,15.30
2013,08,14,08,25,15.30
2013,08,14,08,26,15.30
2013,08,14,08,27,15.30
2013,08,14,08,28,15.30
2013,08,14,08,29,15.30
2013,08,14,08,30,15.30
2013,08,14,08,31,15.30
2013,08,14,08,32,15.30
2013,08,14,08,33,15.30
2013,08,14,08,34,15.30
2013,08,14,08,35,15.30
2013,08,14,08,36,15.30
2013,08,14,08,37,15.30
2013,08,14,08,38,15.40
2013,08,14,08,39,15.40
2013,08,14,08,40,15.40
2013,08,14,08,41,15.40
2013,08,14,08,42,15.40
2013,08,14,08,43,15.50
2013,08,14,08,44,15.50
2013,08,14,08,45,15.50
2013,08,14,08,46,15.50
2013,08,14,08,47,15.60
2013,08,14,08,48,15.60
2013,08,14,08,49,15.60
2013,08,14,08,50,15.60
2013,08,14,08,51,15.60
2013,08,14,08,52,15.60
2013,08,14,08,53,15.60
2013,08,14,08,54,15.60
2013,08,14,08,55,15.60
2013,08,14,08,56,15.60
2013,08,14,08,57,15.60
2013,08,14,08,58,15.60
2013,08,14,08,59,15.60
2013,08,14,09,00,15.60
2013,08,14,09,01,15.60
2013,08,14,09,02,15.60
2013,08,14,09,03,15.60
2013,08,14,09,04,15.60
2013,08,14,09,05,15.60
2013,08,14,09,06,15.70
2013,08,14,09,07,15.70
2013,08,14,09,08,15.70
2013,08,14,09,09,15.80
2013,08,14,09,10,15.80
2013,08,14,09,11,15.80
2013,08,14,09,12,15.80
2013,08,14,09,13,15.80
2013,08,14,09,14,15.80
2013,08,14,09,15,15.80
2013,08,14,09,16,15.90
2013,08,14,09,17,15.90
2013,08,14,09,18,15.90
2013,08,14,09,19,15.90
2013,08,14,09,20,15.90
2013,08,14,09,21,15.90
2013,08,14,09,22,15.90
2013,08,14,09,23,15.90
2013,08,14,09,24,15.90
2013,08,14,09,25,15.90
2013,08,14,09,26,15.90
2013,08,14,09,27,15.90
2013,08,14,09,28,15.90
2013,08,14,09,29,15.90
2013,08,14,09,30,15.90
2013,08,14,09,31,15.90
2013,08,14,09,32,16.10
2013,08,14,09,33,16.10
2013,08,14,09,34,16.10
2013,08,14,09,35,16.10
2013,08,14,09,36,16.10
2013,08,14,09,37,16.10
2013,08,14,09,38,16.10
2013,08,14,09,39,16.20
2013,08,14,09,40,16.20
2013,08,14,09,41,16.20
2013,08,14,09,42,16.30
2013,08,14,09,43,16.30
2013,08,14,09,44,16.30
2013,08,14,09,45,16.30
2013,08,14,09,46,16.30
2013,08,14,09,47,16.20
2013,08,14,09,48,16.20
2013,08,14,09,49,16.20
2013,08,14,09,50,16.30
2013,08,14,09,51,16.30
2013,08,14,09,52,16.30
2013,08,14,09,53,16.40
2013,08,14,09,54,16.40
2013,08,14,09,55,16.40
2013,08,14,09,56,16.40
2013,08,14,09,57,16.40
2013,08,14,09,58,16.40
2013,08,14,09,59,16.40
2013,08,14,10,00,16.40
2013,08,14,10,01,16.40
2013,08,14,10,02,16.60
2013,08,14,10,03,16.60
2013,08,14,10,04,16.70
2013,08,14,10,05,16.70
2013,08,14,10,06,16.70
2013,08,14,10,07,16.70
2013,08,14,10,08,16.70
2013,08,14,10,09,16.70
2013,08,14,10,10,16.70
2013,08,14,10,11,16.80
2013,08,14,10,12,16.80
2013,08,14,10,13,16.80
2013,08,14,10,14,16.90
2013,08,14,10,15,16.90
2013,08,14,10,16,16.90
2013,08,14,10,17,16.90
2013,08,14,10,18,17.00
2013,08,14,10,19,17.00
2013,08,14,10,20,17.10
2013,08,14,10,21,17.10
2013,08,14,10,22,17.20
2013,08,14,10,23,17.20
2013,08,14,10,24,17.20
2013,08,14,10,25,17.20
2013,08,14,10,26,17.30
2013,08,14,10,27,17.30
2013,08,14,10,28,17.30
2013,08,14,10,29,17.30
2013,08,14,10,30,17.30
2013,08,14,10,31,17.30
2013,08,14,10,32,17.30
2013,08,14,10,33,17.40
2013,08,14,10,34,17.40
2013,08,14,10,35,17.50
2013,08,14,10,36,17.50
2013,08,14,10,37,17.60
2013,08,14,10,38,17.60
2013,08,14,10,39,17.70
2013,08,14,10,40,17.80
2013,08,14,10,41,17.80
2013,08,14,10,42,17.90
2013,08,14,10,43,17.90
2013,08,14,10,44,18.10
2013,08,14,10,45,18.20
2013,08,14,10,46,18.20
2013,08,14,10,47,18.30
2013,08,14,10,48,18.40
2013,08,14,10,49,18.50
2013,08,14,10,50,18.60
2013,08,14,10,51,18.70
2013,08,14,10,52,18.80
2013,08,14,10,53,18.90
2013,08,14,10,54,18.90
2013,08,14,10,55,18.90
2013,08,14,10,56,19.10
2013,08,14,10,57,19.10
2013,08,14,10,58,19.10
2013,08,14,10,59,19.10
2013,08,14,11,00,19.10
2013,08,14,11,01,19.20
2013,08,14,11,02,19.30
2013,08,14,11,03,19.30
2013,08,14,11,04,19.30
2013,08,14,11,05,19.30
2013,08,14,11,06,19.30
2013,08,14,11,07,19.40
2013,08,14,11,08,19.40
2013,08,14,11,09,19.40
2013,08,14,11,10,19.40
2013,08,14,11,11,19.40
2013,08,14,11,12,19.30
2013,08,14,11,13,19.30
2013,08,14,11,14,19.30
2013,08,14,11,15,19.30
2013,08,14,11,16,19.40
2013,08,14,11,17,19.40
2013,08,14,11,18,19.40
2013,08,14,11,19,19.50
2013,08,14,11,20,19.50
2013,08,14,11,21,19.50
2013,08,14,11,22,19.50
2013,08,14,11,23,19.50
2013,08,14,11,24,19.50
2013,08,14,11,25,19.50
2013,08,14,11,26,19.50
2013,08,14,11,27,19.50
2013,08,14,11,28,19.60
2013,08,14,11,29,19.60
2013,08,14,11,30,19.60
2013,08,14,11,31,19.70
2013,08,14,11,32,19.70
2013,08,14,11,33,19.80
2013,08,14,11,34,19.80
2013,08,14,11,35,19.80
2013,08,14,11,36,19.70
2013,08,14,11,37,19.70
2013,08,14,11,38,19.60
2013,08,14,11,39,19.50
2013,08,14,11,40,19.40
2013,08,14,11,41,19.40
2013,08,14,11,42,19.30
2013,08,14,11,43,19.30
2013,08,14,11,44,19.20
2013,08,14,11,45,19.20
2013,08,14,11,46,19.20
2013,08,14,11,47,19.20
2013,08,14,11,48,19.20
2013,08,14,11,49,19.20
2013,08,14,11,50,19.20
2013,08,14,11,51,19.20
2013,08,14,11,52,19.30
2013,08,14,11,53,19.30
2013,08,14,11,54,19.40
2013,08,14,11,55,19.40
2013,08,14,11,56,19.40
2013,08,14,11,57,19.50
2013,08,14,11,58,19.50
2013,08,14,11,59,19.50
2013,08,14,12,00,19.50
2013,08,14,12,01,19.60
2013,08,14,12,02,19.60
2013,08,14,12,03,19.70
2013,08,14,12,04,19.70
2013,08,14,12,05,19.70
2013,08,14,12,06,19.80
2013,08,14,12,07,19.80
2013,08,14,12,08,19.90
2013,08,14,12,09,19.90
2013,08,14,12,10,19.90
2013,08,14,12,11,19.90
2013,08,14,12,12,19.90
2013,08,14,12,13,19.90
2013,08,14,12,14,19.90
2013,08,14,12,15,19.90
2013,08,14,12,16,19.90
2013,08,14,12,17,19.90
2013,08,14,12,18,19.90
2013,08,14,12,19,19.90
2013,08,14,12,20,19.80
2013,08,14,12,21,19.80
2013,08,14,12,22,19.80
2013,08,14,12,23,19.80
2013,08,14,12,24,19.80
2013,08,14,12,25,19.80
2013,08,14,12,26,19.70
2013,08,14,12,27,19.70
2013,08,14,12,28,19.70
2013,08,14,12,29,19.70
2013,08,14,12,30,19.70
2013,08,14,12,31,19.70
2013,08,14,12,32,19.70
2013,08,14,12,33,19.70
2013,08,14,12,34,19.70
2013,08,14,12,35,19.70
2013,08,14,12,36,19.70
2013,08,14,12,37,19.70
2013,08,14,12,38,19.70
2013,08,14,12,39,19.70
2013,08,14,12,40,19.70
2013,08,14,12,41,19.80
2013,08,14,12,42,19.80
2013,08,14,12,43,19.80
2013,08,14,12,44,19.80
2013,08,14,12,45,19.80
2013,08,14,12,46,19.80
2013,08,14,12,47,19.80
2013,08,14,12,48,19.70
2013,08,14,12,49,19.70
2013,08,14,12,50,19.70
2013,08,14,12,51,19.70
2013,08,14,12,52,19.70
2013,08,14,12,53,19.60
2013,08,14,12,54,19.60
2013,08,14,12,55,19.60
2013,08,14,12,56,19.50
2013,08,14,12,57,19.50
2013,08,14,12,58,19.40
2013,08,14,12,59,19.40
2013,08,14,13,00,19.30
2013,08,14,13,01,19.30
2013,08,14,13,02,19.30
2013,08,14,13,03,19.20
2013,08,14,13,04,19.10
2013,08,14,13,05,19.10
2013,08,14,13,06,19.10
2013,08,14,13,07,19.10
2013,08,14,13,08,18.90
2013,08,14,13,09,18.90
2013,08,14,13,10,18.90
2013,08,14,13,11,18.80
2013,08,14,13,12,18.70
2013,08,14,13,13,18.70
2013,08,14,13,14,18.60
2013,08,14,13,15,18.50
2013,08,14,13,16,18.40
2013,08,14,13,17,18.40
2013,08,14,13,18,18.30
2013,08,14,13,19,18.30
2013,08,14,13,20,18.30
2013,08,14,13,21,18.30
2013,08,14,13,22,18.30
2013,08,14,13,23,18.30
2013,08,14,13,24,18.30
2013,08,14,13,25,18.30
2013,08,14,13,26,18.30
2013,08,14,13,27,18.30
2013,08,14,13,28,18.30
2013,08,14,13,29,18.30
2013,08,14,13,30,18.30
2013,08,14,13,31,18.30
2013,08,14,13,32,18.30
2013,08,14,13,33,18.30
2013,08,14,13,34,18.30
2013,08,14,13,35,18.30
2013,08,14,13,36,18.30
2013,08,14,13,37,18.30
2013,08,14,13,38,18.30
2013,08,14,13,39,18.30
2013,08,14,13,40,18.30
2013,08,14,13,41,18.30
2013,08,14,13,42,18.30
2013,08,14,13,43,18.30
2013,08,14,13,44,18.30
2013,08,14,13,45,18.20
2013,08,14,13,46,18.20
2013,08,14,13,47,18.20
2013,08,14,13,48,18.20
2013,08,14,13,49,18.10
2013,08,14,13,50,18.10
2013,08,14,13,51,17.90
2013,08,14,13,52,17.90
2013,08,14,13,53,17.90
2013,08,14,13,54,17.80
2013,08,14,13,55,17.80
2013,08,14,13,56,17.70
2013,08,14,13,57,17.70
2013,08,14,13,58,17.70
2013,08,14,13,59,17.60
2013,08,14,14,00,17.60
2013,08,14,14,01,17.60
2013,08,14,14,02,17.60
2013,08,14,14,03,17.60
2013,08,14,14,04,17.60
2013,08,14,14,05,17.50
2013,08,14,14,06,17.50
2013,08,14,14,07,17.50
2013,08,14,14,08,17.50
2013,08,14,14,09,17.50
2013,08,14,14,10,17.50
2013,08,14,14,11,17.50
2013,08,14,14,12,17.50
2013,08,14,14,13,17.60
2013,08,14,14,14,17.60
2013,08,14,14,15,17.60
2013,08,14,14,16,17.60
2013,08,14,14,17,17.60
2013,08,14,14,18,17.60
2013,08,14,14,19,17.60
2013,08,14,14,20,17.70
2013,08,14,14,21,17.60
2013,08,14,14,22,17.70
2013,08,14,14,23,17.70
2013,08,14,14,24,17.60
2013,08,14,14,25,17.60
2013,08,14,14,26,17.60
2013,08,14,14,27,17.60
2013,08,14,14,28,17.60
2013,08,14,14,29,17.60
2013,08,14,14,30,17.60
2013,08,14,14,31,17.60
2013,08,14,14,32,17.50
2013,08,14,14,33,17.50
2013,08,14,14,34,17.40
2013,08,14,14,35,17.40
2013,08,14,14,36,17.40
2013,08,14,14,37,17.30
2013,08,14,14,38,17.30
2013,08,14,14,39,17.30
2013,08,14,14,40,17.30
2013,08,14,14,41,17.30
2013,08,14,14,42,17.30
2013,08,14,14,43,17.30
2013,08,14,14,44,17.30
2013,08,14,14,45,17.30
2013,08,14,14,46,17.30
2013,08,14,14,47,17.30
2013,08,14,14,48,17.30
2013,08,14,14,49,17.30
2013,08,14,14,50,17.30
2013,08,14,14,51,17.30
2013,08,14,14,52,17.30
2013,08,14,14,53,17.30
2013,08,14,14,54,17.40
2013,08,14,14,55,17.40
2013,08,14,14,56,17.40
2013,08,14,14,57,17.40
2013,08,14,14,58,17.40
2013,08,14,14,59,17.30
2013,08,14,15,00,17.30
2013,08,14,15,01,17.30
2013,08,14,15,02,17.20
2013,08,14,15,03,17.20
2013,08,14,15,04,17.20
2013,08,14,15,05,17.10
2013,08,14,15,06,17.00
2013,08,14,15,07,16.90
2013,08,14,15,08,16.90
2013,08,14,15,09,16.90
2013,08,14,15,10,16.80
2013,08,14,15,11,16.80
2013,08,14,15,12,16.70
2013,08,14,15,13,16.70
2013,08,14,15,14,16.70
2013,08,14,15,15,16.70
2013,08,14,15,16,16.70
2013,08,14,15,17,16.70
2013,08,14,15,18,16.70
2013,08,14,15,19,16.70
2013,08,14,15,20,16.70
2013,08,14,15,21,16.70
2013,08,14,15,22,16.70
2013,08,14,15,23,16.70
2013,08,14,15,24,16.70
2013,08,14,15,25,16.70
2013,08,14,15,26,16.70
2013,08,14,15,27,16.70
2013,08,14,15,28,16.80
2013,08,14,15,29,16.80
2013,08,14,15,30,16.80
2013,08,14,15,31,16.80
2013,08,14,15,32,16.80
2013,08,14,15,33,16.80
2013,08,14,15,34,16.80
2013,08,14,15,35,16.80
2013,08,14,15,36,16.80
2013,08,14,15,37,16.80
2013,08,14,15,38,16.80
2013,08,14,15,39,16.80
2013,08,14,15,40,16.80
2013,08,14,15,41,16.80
2013,08,14,15,42,16.70
2013,08,14,15,43,16.80
2013,08,14,15,44,16.80
2013,08,14,15,45,16.80
2013,08,14,15,46,16.70
2013,08,14,15,47,16.70
2013,08,14,15,48,16.70
2013,08,14,15,49,16.70
2013,08,14,15,50,16.70
2013,08,14,15,51,16.70
2013,08,14,15,52,16.70
2013,08,14,15,53,16.70
2013,08,14,15,54,16.70
2013,08,14,15,55,16.70
2013,08,14,15,56,16.70
2013,08,14,15,57,16.70
2013,08,14,15,58,16.70
2013,08,14,15,59,16.80
2013,08,14,16,00,16.80
2013,08,14,16,01,16.80
2013,08,14,16,02,16.90
2013,08,14,16,03,16.90
2013,08,14,16,04,16.90
2013,08,14,16,05,16.90
2013,08,14,16,06,17.00
2013,08,14,16,07,17.00
2013,08,14,16,08,17.00
2013,08,14,16,09,17.10
2013,08,14,16,10,17.10
2013,08,14,16,11,17.10
2013,08,14,16,12,17.20
2013,08,14,16,13,17.20
2013,08,14,16,14,17.30
2013,08,14,16,15,17.30
2013,08,14,16,16,17.30
2013,08,14,16,17,17.30
2013,08,14,16,18,17.30
2013,08,14,16,19,17.30
2013,08,14,16,20,17.30
2013,08,14,16,21,17.40
2013,08,14,16,22,17.40
2013,08,14,16,23,17.40
2013,08,14,16,24,17.50
2013,08,14,16,25,17.50
2013,08,14,16,26,17.50
2013,08,14,16,27,17.50
2013,08,14,16,28,17.50
2013,08,14,16,29,17.50
2013,08,14,16,30,17.50
2013,08,14,16,31,17.50
2013,08,14,16,32,17.60
2013,08,14,16,33,17.60
2013,08,14,16,34,17.60
2013,08,14,16,35,17.70
2013,08,14,16,36,17.70
2013,08,14,16,37,17.70
2013,08,14,16,38,17.70
2013,08,14,16,39,17.70
2013,08,14,16,40,17.70
2013,08,14,16,41,17.80
2013,08,14,16,42,17.80
2013,08,14,16,43,17.90
2013,08,14,16,44,17.90
2013,08,14,16,45,17.90
2013,08,14,16,46,17.90
2013,08,14,16,47,17.90
2013,08,14,16,48,17.90
2013,08,14,16,49,17.90
2013,08,14,16,50,17.90
2013,08,14,16,51,17.90
2013,08,14,16,52,17.90
2013,08,14,16,53,17.90
2013,08,14,16,54,17.90
2013,08,14,16,55,17.90
2013,08,14,16,56,17.90
2013,08,14,16,57,17.90
2013,08,14,16,58,17.90
2013,08,14,16,59,17.90
2013,08,14,17,00,17.90
2013,08,14,17,01,17.90
2013,08,14,17,02,17.90
2013,08,14,17,03,17.90
2013,08,14,17,04,17.90
2013,08,14,17,05,17.90
2013,08,14,17,06,17.80
2013,08,14,17,07,17.80
2013,08,14,17,08,17.80
2013,08,14,17,09,17.80
2013,08,14,17,10,17.80
2013,08,14,17,11,17.80
2013,08,14,17,12,17.80
2013,08,14,17,13,17.80
2013,08,14,17,14,17.80
2013,08,14,17,15,17.80
2013,08,14,17,16,17.80
2013,08,14,17,17,17.80
2013,08,14,17,18,17.80
2013,08,14,17,19,17.80
2013,08,14,17,20,17.80
2013,08,14,17,21,17.80
2013,08,14,17,22,17.80
2013,08,14,17,23,17.80
2013,08,14,17,24,17.80
2013,08,14,17,25,17.80
2013,08,14,17,26,17.80
2013,08,14,17,27,17.80
2013,08,14,17,28,17.80
2013,08,14,17,29,17.80
2013,08,14,17,30,17.80
2013,08,14,17,31,17.80
2013,08,14,17,32,17.80
2013,08,14,17,33,17.80
2013,08,14,17,34,17.80
2013,08,14,17,35,17.90
2013,08,14,17,36,17.90
2013,08,14,17,37,17.90
2013,08,14,17,38,17.80
2013,08,14,17,39,17.80
2013,08,14,17,40,17.80
2013,08,14,17,41,17.80
2013,08,14,17,42,17.80
2013,08,14,17,43,17.80
2013,08,14,17,44,17.90
2013,08,14,17,45,17.90
2013,08,14,17,46,17.90
2013,08,14,17,47,17.80
2013,08,14,17,48,17.80
2013,08,14,17,49,17.80
2013,08,14,17,50,17.80
2013,08,14,17,51,17.80
2013,08,14,17,52,17.80
2013,08,14,17,53,17.80
2013,08,14,17,54,17.90
2013,08,14,17,55,17.90
2013,08,14,17,56,17.90
2013,08,14,17,57,17.90
2013,08,14,17,58,17.90
2013,08,14,17,59,17.90
2013,08,14,18,00,17.90
2013,08,14,18,01,17.90
2013,08,14,18,02,17.90
2013,08,14,18,03,17.90
2013,08,14,18,04,17.90
2013,08,14,18,05,17.90
2013,08,14,18,06,17.90
2013,08,14,18,07,17.90
2013,08,14,18,08,17.90
2013,08,14,18,09,17.90
2013,08,14,18,10,18.10
2013,08,14,18,11,18.10
2013,08,14,18,12,18.10
2013,08,14,18,13,17.90
2013,08,14,18,14,17.90
2013,08,14,18,15,17.90
2013,08,14,18,16,17.90
2013,08,14,18,17,17.90
2013,08,14,18,18,17.90
2013,08,14,18,19,17.90
2013,08,14,18,20,17.90
2013,08,14,18,21,17.90
2013,08,14,18,22,17.90
2013,08,14,18,23,17.90
2013,08,14,18,24,17.90
2013,08,14,18,25,17.90
2013,08,14,18,26,17.90
2013,08,14,18,27,17.90
2013,08,14,18,28,17.90
2013,08,14,18,29,17.90
2013,08,14,18,30,17.90
2013,08,14,18,31,17.90
2013,08,14,18,32,17.90
2013,08,14,18,33,17.90
2013,08,14,18,34,17.90
2013,08,14,18,35,17.90
2013,08,14,18,36,17.90
2013,08,14,18,37,17.80
2013,08,14,18,38,17.80
2013,08,14,18,39,17.80
2013,08,14,18,40,17.80
2013,08,14,18,41,17.80
2013,08,14,18,42,17.80
2013,08,14,18,43,17.80
2013,08,14,18,44,17.70
2013,08,14,18,45,17.70
2013,08,14,18,46,17.70
2013,08,14,18,47,17.70
2013,08,14,18,48,17.70
2013,08,14,18,49,17.70
2013,08,14,18,50,17.70
2013,08,14,18,51,17.70
2013,08,14,18,52,17.70
2013,08,14,18,53,17.70
2013,08,14,18,54,17.70
2013,08,14,18,55,17.70
2013,08,14,18,56,17.60
2013,08,14,18,57,17.50
2013,08,14,18,58,17.50
2013,08,14,18,59,17.40
2013,08,14,19,00,17.40
2013,08,14,19,01,17.40
2013,08,14,19,02,17.40
2013,08,14,19,03,17.40
2013,08,14,19,04,17.40
2013,08,14,19,05,17.30
2013,08,14,19,06,17.30
2013,08,14,19,07,17.30
2013,08,14,19,08,17.30
2013,08,14,19,09,17.30
2013,08,14,19,10,17.20
2013,08,14,19,11,17.20
2013,08,14,19,12,17.10
2013,08,14,19,13,17.10
2013,08,14,19,14,17.00
2013,08,14,19,15,17.00
2013,08,14,19,16,17.00
2013,08,14,19,17,16.90
2013,08,14,19,18,16.90
2013,08,14,19,19,16.90
2013,08,14,19,20,16.90
2013,08,14,19,21,16.90
2013,08,14,19,22,16.90
2013,08,14,19,23,16.90
2013,08,14,19,24,16.90
2013,08,14,19,25,16.90
2013,08,14,19,26,16.90
2013,08,14,19,27,16.90
2013,08,14,19,28,16.90
2013,08,14,19,29,16.90
2013,08,14,19,30,16.90
2013,08,14,19,31,16.90
2013,08,14,19,32,16.90
2013,08,14,19,33,16.90
2013,08,14,19,34,16.90
2013,08,14,19,35,16.90
2013,08,14,19,36,16.90
2013,08,14,19,37,16.90
2013,08,14,19,38,16.90
2013,08,14,19,39,16.90
2013,08,14,19,40,16.90
2013,08,14,19,41,16.90
2013,08,14,19,42,16.90
2013,08,14,19,43,16.90
2013,08,14,19,44,16.90
2013,08,14,19,45,16.90
2013,08,14,19,46,16.90
2013,08,14,19,47,16.90
2013,08,14,19,48,16.90
2013,08,14,19,49,16.90
2013,08,14,19,50,16.90
2013,08,14,19,51,16.90
2013,08,14,19,52,16.90
2013,08,14,19,53,16.90
2013,08,14,19,54,16.90
2013,08,14,19,55,16.80
2013,08,14,19,56,16.80
2013,08,14,19,57,16.80
2013,08,14,19,58,16.80
2013,08,14,19,59,16.80
2013,08,14,20,00,16.80
2013,08,14,20,01,16.90
2013,08,14,20,02,16.90
2013,08,14,20,03,16.90
2013,08,14,20,04,16.90
2013,08,14,20,05,16.90
2013,08,14,20,06,16.90
2013,08,14,20,07,16.90
2013,08,14,20,08,16.90
2013,08,14,20,09,16.90
2013,08,14,20,10,16.90
2013,08,14,20,11,16.80
2013,08,14,20,12,16.80
2013,08,14,20,13,16.80
2013,08,14,20,14,16.70
2013,08,14,20,15,16.70
2013,08,14,20,16,16.70
2013,08,14,20,17,16.70
2013,08,14,20,18,16.70
2013,08,14,20,19,16.70
2013,08,14,20,20,16.70
2013,08,14,20,21,16.70
2013,08,14,20,22,16.70
2013,08,14,20,23,16.70
2013,08,14,20,24,16.70
2013,08,14,20,25,16.70
2013,08,14,20,26,16.70
2013,08,14,20,27,16.70
2013,08,14,20,28,16.70
2013,08,14,20,29,16.70
2013,08,14,20,30,16.70
2013,08,14,20,31,16.70
2013,08,14,20,32,16.70
2013,08,14,20,33,16.70
2013,08,14,20,34,16.70
2013,08,14,20,35,16.70
2013,08,14,20,36,16.70
2013,08,14,20,37,16.70
2013,08,14,20,38,16.70
2013,08,14,20,39,16.70
2013,08,14,20,40,16.70
2013,08,14,20,41,16.70
2013,08,14,20,42,16.70
2013,08,14,20,43,16.70
2013,08,14,20,44,16.70
2013,08,14,20,45,16.70
2013,08,14,20,46,16.70
2013,08,14,20,47,16.70
2013,08,14,20,48,16.70
2013,08,14,20,49,16.70
2013,08,14,20,50,16.70
2013,08,14,20,51,16.70
2013,08,14,20,52,16.70
2013,08,14,20,53,16.70
2013,08,14,20,54,16.70
2013,08,14,20,55,16.70
2013,08,14,20,56,16.70
2013,08,14,20,57,16.60
2013,08,14,20,58,16.60
2013,08,14,20,59,16.60
2013,08,14,21,00,16.60
2013,08,14,21,01,16.60
2013,08,14,21,02,16.60
2013,08,14,21,03,16.60
2013,08,14,21,04,16.60
2013,08,14,21,05,16.60
2013,08,14,21,06,16.60
2013,08,14,21,07,16.60
2013,08,14,21,08,16.60
2013,08,14,21,09,16.60
2013,08,14,21,10,16.60
2013,08,14,21,11,16.40
2013,08,14,21,12,16.40
2013,08,14,21,13,16.40
2013,08,14,21,14,16.40
2013,08,14,21,15,16.40
2013,08,14,21,16,16.40